[[{"header":{"parameterUnit":"m.s-1","parameterCategory":1,"la1":30.2991,"la2":30.254,"lo1":-89.0895,"lo2":-89.0444,"dy":0.0017,"dx":0.0017,"nx":28,"ny":28,"refTime":"2024-10-18T09:00:00:Z","depth":0,"parameterNumber":2,"parameterNumberName":"U-component_of_WINDS"},"data":[0,0,0,0,0,0,0,0,0,0,0,0,0,0,0,0,0,0,0,0,0,0,0,0,0,0,0,0,0,0,0,0,0,0,0,0,0,0,0,0,0,0,0,0,0,0,0,0,0,0,0,0,0,0,0,0,0,0,-5.6524,-5.6525,0,-5.6648,-5.6649,-5.6651,-5.6497,-5.6492,-5.6486,-5.6481,-5.6608,-5.6617,-5.6625,0,0,0,0,0,0,0,0,0,0,0,0,0,-5.6155,-5.6162,-5.6524,-5.6526,-5.6527,-5.6648,-5.6649,-5.6651,-5.6498,-5.6492,-5.6485,-5.6478,-5.6606,-5.6616,-5.6626,0,0,0,0,0,0,0,0,0,0,0,0,0,-5.6301,-5.6165,-5.6524,-5.6465,-5.6461,-5.6647,-5.6649,-5.6651,-5.65,-5.6491,-5.6483,-5.6475,-5.6602,-5.6615,-5.6628,-5.6877,0,0,-5.6667,-5.6673,0,0,0,0,0,0,0,0,-5.6293,-5.6314,-5.6473,-5.647,-5.6466,-5.6548,-5.6566,-5.6727,-5.6502,-5.6485,-5.6481,-5.6471,-5.6595,-5.6608,-5.665,-5.6883,-5.6888,-5.6668,-5.6676,-5.6682,-5.6686,0,0,0,0,0,0,0,-5.6283,-5.6308,-5.6573,-5.6475,-5.6471,-5.6433,-5.6444,-5.6596,-5.6586,-5.6486,-5.6475,-5.6492,-5.6592,-5.6638,-5.6652,-5.689,-5.6668,-5.668,-5.6688,-5.6693,-5.7332,-5.734,0,0,0,0,0,0,-5.6279,-5.6301,-5.6569,-5.6577,-5.6357,-5.6446,-5.6459,-5.6531,-5.6584,-5.6584,-5.6499,-5.6484,-5.662,-5.6637,-5.6656,-5.695,-5.6682,-5.6694,-5.6701,-5.7323,-5.7334,-5.7344,0,0,0,0,0,0,-5.6272,-5.6305,-5.6564,-5.6436,-5.6466,-5.6462,-5.6543,-5.6537,-5.6583,-5.6594,-5.6592,-5.6548,-5.6614,-5.6638,-5.6823,-5.6952,-5.67,-5.6712,-5.7312,-5.7326,-5.7339,-5.7541,0,0,0,0,0,0,-5.6262,-5.6303,-5.6398,-5.6439,-5.6473,-5.6729,-5.6551,-5.6546,-5.6606,-5.6588,-5.6639,-5.664,-5.6609,-5.6804,-5.6836,-5.6965,-5.6722,-5.73,-5.7318,-5.7334,-5.7522,-5.756,-5.7591,0,0,0,0,0,-5.6249,-5.645,-5.6404,-5.6437,-5.6592,-5.6737,-5.6757,-5.6717,-5.6617,-5.6712,-5.6719,-5.6638,-5.6933,-5.6824,-5.6858,-5.6994,-5.7292,-5.7313,-5.7333,-5.7507,-5.7552,-5.7591,0,0,0,0,0,0,-5.6425,-5.6455,-5.6403,-5.6623,-5.6679,-5.6711,-5.6829,-5.6767,-5.6852,-5.6832,-5.678,-5.6793,-5.6989,-5.701,-5.6888,-5.7237,-5.7096,-5.7124,-5.7216,-5.726,-5.7293,-5.7284,-5.6732,0,0,0,0,0,-5.6489,-5.6605,-5.6624,-5.6817,-5.6847,-5.6834,-5.6896,-5.6861,-5.6916,-5.6939,-5.6959,-5.7016,-5.7121,-5.7192,-5.7289,-5.7525,-5.7533,-5.7635,-5.767,-5.7698,-5.7723,-5.7847,-5.7892,-5.7411,-5.7411,-5.7411,0,0,-5.6623,-5.6654,-5.673,-5.6853,-5.6892,-5.7012,-5.6855,-5.6989,-5.7078,-5.6959,-5.7134,-5.7152,-5.7212,-5.7423,-5.7517,-5.7446,-5.7858,-5.7724,-5.7747,-5.7756,-5.7873,-5.7919,-5.7959,-5.7426,-5.7423,-5.7421,0,0,-5.6928,-5.6964,-5.7127,-5.7169,-5.723,-5.7219,-5.7259,-5.7301,-5.7307,-5.7482,-5.7396,-5.75,-5.7683,-5.7729,-5.7776,-5.8099,-5.8027,-5.8132,-5.8312,-5.8434,-5.8472,-5.8505,-5.8619,-5.866,-5.8157,-5.8158,-5.8158,0,-5.7087,-5.7265,-5.7219,-5.7359,-5.7415,-5.7314,-5.7478,-5.7521,-5.7611,-5.7652,-5.7572,-5.7798,-5.7831,-5.8051,-5.8129,-5.8172,-5.8214,-5.8125,-5.847,-5.8503,-5.8534,-5.8641,-5.8684,-5.817,-5.8168,-5.8167,-5.8166,0,-5.7456,-5.7581,-5.7706,-5.7794,-5.7864,-5.8016,-5.7993,-5.807,-5.8029,-5.8027,-5.8206,-5.8243,-5.8345,-5.8395,-5.8357,-5.8609,-5.8563,-5.8478,-5.8335,-5.8592,-5.8692,-5.8733,-5.8187,-5.8183,-5.8179,-5.8176,0,0,-5.7875,-5.7936,-5.7982,-5.802,-5.8079,-5.8175,-5.8322,-5.8421,-5.8488,-5.8553,-5.8674,-5.8831,-5.8752,-5.8806,-5.8772,-5.888,-5.913,-5.878,-5.8781,-5.8843,-5.9409,-5.9472,-5.952,-5.9084,-5.9092,-5.9098,-5.9404,0,-5.8179,-5.8433,-5.8396,-5.864,-5.8754,-5.8659,-5.8786,-5.8837,-5.8839,-5.8936,-5.8938,-5.905,-5.8938,-5.8969,-5.9072,-5.9078,-5.9243,-5.9056,-5.9195,-5.9201,-5.9181,-5.9573,-5.964,-5.9927,-5.9443,-5.9449,-5.9454,0,-5.8567,-5.8646,-5.8902,-5.8942,-5.8988,-5.9104,-5.9192,-5.9286,-5.934,-5.9334,-5.9395,-5.9341,-5.9487,-5.9343,-5.9543,-5.9417,-5.9472,-5.9484,-5.9494,-5.9504,-5.9342,-5.9592,-6.0017,-6.006,-5.9516,-5.9511,-5.9506,0,-5.8845,-5.9015,-5.9189,-5.9225,-5.9277,-5.936,-5.9386,-5.9432,-5.9494,-5.9571,-5.961,-5.9704,-5.9755,-5.9829,-5.9802,-5.9699,-6.0008,-5.9861,-6.0006,-6.0007,-6.0074,-6.007,-6.0512,-6.0113,-6.0112,-6.0111,-6.0111,0,-5.9187,-5.9347,-5.9314,-5.9422,-5.9598,-5.9554,-5.9729,-5.9743,-5.9785,-5.9893,-5.9817,-5.992,-5.9878,-5.9979,-5.9959,-6.0127,-6.0151,-6.015,-6.0142,-6.0156,-6.0156,-6.019,-6.0168,-6.0123,-6.012,-6.0118,-6.0116,0,-5.9526,-5.9511,-5.9694,-5.9728,-5.974,-5.9869,-5.9897,-5.9998,-5.9994,-6.0132,-6.0161,-6.0156,-6.027,-6.0251,-6.0378,-6.0364,-6.0574,-6.0543,-6.0555,-6.0547,-6.0692,-6.0678,-6.1171,-6.1232,-6.0795,-6.08,-6.0803,0,-5.9744,-5.9865,-5.9911,-5.9978,-6.0009,-6.0118,-6.018,-6.0142,-6.021,-6.0281,-6.0373,-6.048,-6.0564,-6.0751,-6.0758,-6.0854,-6.0824,-6.099,-6.0838,-6.0847,-6.0824,-6.0816,-6.0827,-6.1019,-6.1024,-6.1028,-6.1032,0,-6.0133,-6.0119,-6.0212,-6.0303,-6.038,-6.045,-6.0512,-6.0571,-6.0538,-6.0619,-6.0734,-6.0799,-6.0928,-6.1035,-6.1125,-6.115,-6.1086,-6.108,-6.1118,-6.1132,-6.1133,-6.1132,-6.0635,-6.1068,-6.1065,-6.1062,-6.106,-6.1058,-6.0416,-6.0518,-6.0567,-6.0673,-6.0716,-6.0776,-6.0871,-6.0879,-6.0975,-6.1076,-6.1048,-6.1179,-6.1229,-6.1343,-6.1379,-6.1481,-6.1419,-6.1475,-6.1489,-6.1503,-6.1519,-6.1119,-6.1497,-6.1496,-6.1495,-6.1494,-6.1494,0,-6.0799,-6.0826,-6.0924,-6.1013,-6.1096,-6.1029,-6.1094,-6.1168,-6.1284,-6.1337,-6.142,-6.1552,-6.1656,-6.1672,-6.1769,-6.1848,-6.1821,-6.1875,-6.1867,-6.1874,-6.157,-6.1526,-6.1895,-6.1895,-6.1895,-6.1894,-6.1894,-6.1894,-6.1008,-6.1176,-6.1169,-6.1357,-6.1382,-6.1509,-6.1552,-6.1607,-6.1648,-6.1799,-6.1885,-6.1894,-6.1932,-6.2032,-6.2124,-6.2126,-6.2164,-6.223,-6.222,-6.1936,-6.1896,-6.1857,-6.1816,-6.2239,-6.224,-6.2515,-6.2518,-6.252]},{"header":{"parameterUnit":"m.s-1","parameterCategory":1,"la1":30.2991,"la2":30.254,"lo1":-89.0895,"lo2":-89.0444,"dy":0.0017,"dx":0.0017,"nx":28,"ny":28,"refTime":"2024-10-18T09:00:00:Z","depth":0,"parameterNumber":3,"parameterNumberName":"V-component_of_WINDS"},"data":[0,0,0,0,0,0,0,0,0,0,0,0,0,0,0,0,0,0,0,0,0,0,0,0,0,0,0,0,0,0,0,0,0,0,0,0,0,0,0,0,0,0,0,0,0,0,0,0,0,0,0,0,0,0,0,0,0,0,-2.0595,-2.0595,0,-2.0556,-2.0556,-2.0556,-2.0523,-2.0523,-2.0522,-2.0522,-2.0482,-2.0481,-2.0481,0,0,0,0,0,0,0,0,0,0,0,0,0,-2.0639,-2.0638,-2.0595,-2.0595,-2.0594,-2.0556,-2.0556,-2.0555,-2.0523,-2.0523,-2.0522,-2.0522,-2.0482,-2.0482,-2.0481,0,0,0,0,0,0,0,0,0,0,0,0,0,-2.0612,-2.0638,-2.0595,-2.0573,-2.0571,-2.0557,-2.0556,-2.0555,-2.0523,-2.0523,-2.0522,-2.0522,-2.0483,-2.0482,-2.0481,-2.0484,0,0,-2.0477,-2.0477,0,0,0,0,0,0,0,0,-2.0614,-2.061,-2.0577,-2.0575,-2.0572,-2.0544,-2.0557,-2.0532,-2.0523,-2.0541,-2.0522,-2.0521,-2.0503,-2.05,-2.0494,-2.0483,-2.0481,-2.0477,-2.0476,-2.0476,-2.0476,0,0,0,0,0,0,0,-2.0616,-2.0612,-2.058,-2.0577,-2.0574,-2.0565,-2.0561,-2.0552,-2.0526,-2.054,-2.0537,-2.0533,-2.0502,-2.0495,-2.0493,-2.048,-2.0477,-2.0476,-2.0476,-2.0475,-2.0467,-2.0467,0,0,0,0,0,0,-2.0621,-2.0614,-2.0581,-2.0579,-2.0592,-2.0565,-2.056,-2.0554,-2.0526,-2.0521,-2.0534,-2.0532,-2.0498,-2.0494,-2.0492,-2.0492,-2.0476,-2.0475,-2.0474,-2.0466,-2.0467,-2.0467,0,0,0,0,0,0,-2.0622,-2.0618,-2.0583,-2.0595,-2.059,-2.0564,-2.0558,-2.0553,-2.0547,-2.0521,-2.0516,-2.0532,-2.0497,-2.0493,-2.0486,-2.049,-2.0475,-2.0474,-2.0466,-2.0466,-2.0467,-2.0495,0,0,0,0,0,0,-2.0623,-2.0619,-2.0621,-2.0596,-2.059,-2.0578,-2.0558,-2.0553,-2.0545,-2.0542,-2.0518,-2.0514,-2.0496,-2.0488,-2.0485,-2.0489,-2.0473,-2.0465,-2.0466,-2.0467,-2.0493,-2.0496,-2.0499,0,0,0,0,0,-2.0625,-2.0631,-2.0621,-2.0617,-2.0592,-2.0579,-2.0575,-2.0555,-2.0546,-2.0546,-2.053,-2.0515,-2.049,-2.0487,-2.0484,-2.0487,-2.0465,-2.0466,-2.0467,-2.0492,-2.0496,-2.0499,0,0,0,0,0,0,-2.0658,-2.0627,-2.0616,-2.0614,-2.0599,-2.0573,-2.0574,-2.056,-2.0547,-2.0545,-2.052,-2.0515,-2.051,-2.0498,-2.0495,-2.0488,-2.0475,-2.0476,-2.0496,-2.0499,-2.0502,-2.0505,-2.0472,0,0,0,0,0,-2.0665,-2.0657,-2.0631,-2.0631,-2.0624,-2.06,-2.0594,-2.0579,-2.0563,-2.0556,-2.0539,-2.0523,-2.0512,-2.0505,-2.0493,-2.0491,-2.0485,-2.0492,-2.0495,-2.0497,-2.0498,-2.0493,-2.0496,-2.047,-2.047,-2.047,0,0,-2.0679,-2.0661,-2.0658,-2.0637,-2.0624,-2.0616,-2.0595,-2.0588,-2.0581,-2.0555,-2.0547,-2.0533,-2.0514,-2.0509,-2.0506,-2.0499,-2.0503,-2.0498,-2.0501,-2.05,-2.0494,-2.0497,-2.0499,-2.0471,-2.0471,-2.0471,0,0,-2.07,-2.0687,-2.0685,-2.0672,-2.0651,-2.0635,-2.0634,-2.061,-2.06,-2.0591,-2.057,-2.0562,-2.0543,-2.0529,-2.052,-2.0533,-2.0518,-2.053,-2.0545,-2.0541,-2.0543,-2.0544,-2.0547,-2.0549,-2.0531,-2.0531,-2.0531,0,-2.0721,-2.0708,-2.0686,-2.0679,-2.0669,-2.0645,-2.0641,-2.063,-2.0607,-2.06,-2.0593,-2.0567,-2.0552,-2.0542,-2.0545,-2.0539,-2.0536,-2.0533,-2.0544,-2.0546,-2.0547,-2.0549,-2.0551,-2.0532,-2.0532,-2.0532,-2.0532,0,-2.0733,-2.0724,-2.0725,-2.0702,-2.0693,-2.0688,-2.0664,-2.0657,-2.0642,-2.0627,-2.0616,-2.0598,-2.058,-2.0577,-2.0564,-2.0564,-2.056,-2.0549,-2.0536,-2.0551,-2.0553,-2.0554,-2.0534,-2.0534,-2.0533,-2.0533,0,0,-2.0775,-2.0739,-2.0739,-2.0727,-2.0702,-2.0694,-2.0687,-2.067,-2.0664,-2.0648,-2.0641,-2.0624,-2.0613,-2.0602,-2.0586,-2.0583,-2.0592,-2.0571,-2.0571,-2.0575,-2.059,-2.0598,-2.0599,-2.0582,-2.0582,-2.0582,-2.0591,0,-2.0791,-2.0778,-2.0756,-2.0749,-2.0739,-2.0715,-2.0708,-2.0691,-2.0676,-2.0665,-2.0647,-2.0635,-2.0622,-2.0615,-2.0611,-2.0592,-2.0595,-2.0591,-2.0574,-2.0573,-2.0579,-2.0601,-2.061,-2.0619,-2.0591,-2.0592,-2.0592,0,-2.0809,-2.0793,-2.0785,-2.0758,-2.0753,-2.0748,-2.0729,-2.0719,-2.0699,-2.0688,-2.0675,-2.0657,-2.0647,-2.0635,-2.062,-2.0618,-2.0609,-2.0599,-2.0599,-2.0596,-2.0583,-2.0597,-2.0621,-2.0622,-2.0593,-2.0593,-2.0593,0,-2.0838,-2.0815,-2.0807,-2.0798,-2.0767,-2.0763,-2.075,-2.0729,-2.0719,-2.0703,-2.0696,-2.0678,-2.0669,-2.0655,-2.0633,-2.0627,-2.0619,-2.0606,-2.0608,-2.0609,-2.0608,-2.0608,-2.063,-2.0604,-2.0604,-2.0604,-2.0604,0,-2.0858,-2.0853,-2.0819,-2.0814,-2.0808,-2.0783,-2.0777,-2.0761,-2.0742,-2.0733,-2.071,-2.0702,-2.0673,-2.0661,-2.0643,-2.0632,-2.0628,-2.0618,-2.0613,-2.0619,-2.062,-2.0613,-2.0611,-2.0604,-2.0604,-2.0604,-2.0604,0,-2.0889,-2.0867,-2.0855,-2.0826,-2.0819,-2.0815,-2.079,-2.0783,-2.0765,-2.0753,-2.0749,-2.0721,-2.0705,-2.0681,-2.0659,-2.0647,-2.0638,-2.0631,-2.0645,-2.0641,-2.0645,-2.0644,-2.0661,-2.0662,-2.0637,-2.0637,-2.0638,0,-2.0903,-2.0899,-2.0869,-2.0861,-2.0848,-2.0835,-2.0825,-2.0799,-2.0789,-2.0764,-2.076,-2.0742,-2.0726,-2.0701,-2.0679,-2.066,-2.0652,-2.0659,-2.0649,-2.0655,-2.065,-2.065,-2.0649,-2.0662,-2.0662,-2.0662,-2.0663,0,-2.0929,-2.0917,-2.0903,-2.0884,-2.0872,-2.0856,-2.0839,-2.0834,-2.0804,-2.0794,-2.0777,-2.0764,-2.074,-2.0722,-2.07,-2.0685,-2.0668,-2.0666,-2.0665,-2.0671,-2.0679,-2.0673,-2.065,-2.0666,-2.0665,-2.0665,-2.0665,-2.0665,-2.0951,-2.0945,-2.0923,-2.0907,-2.0891,-2.0875,-2.0867,-2.0847,-2.0833,-2.0811,-2.0797,-2.078,-2.0757,-2.0726,-2.0712,-2.0698,-2.0691,-2.069,-2.069,-2.069,-2.0691,-2.0682,-2.0694,-2.0694,-2.0694,-2.0694,-2.0693,0,-2.0974,-2.0958,-2.0944,-2.092,-2.0907,-2.0893,-2.0872,-2.0862,-2.0848,-2.0828,-2.0813,-2.0792,-2.0774,-2.0749,-2.0729,-2.0722,-2.0713,-2.0717,-2.0717,-2.0713,-2.07,-2.0702,-2.0724,-2.0724,-2.0724,-2.0724,-2.0724,-2.0724,-2.0985,-2.0974,-2.0959,-2.0939,-2.0923,-2.0906,-2.0896,-2.088,-2.0864,-2.0842,-2.0827,-2.081,-2.0788,-2.0766,-2.0748,-2.0741,-2.0734,-2.074,-2.073,-2.0718,-2.0715,-2.0712,-2.0714,-2.0739,-2.0739,-2.0745,-2.0745,-2.0745]}]]